This is the latest recevied weather packets stored in our database for station/object YN1ZSC-13. If no packets are shown the sender has not sent any weather packets the latest 10 day(s).
| Time | Temp. | Humidity | Pressure | Rain* | Wind** | Luminosity | Snow |
|---|---|---|---|---|---|---|---|
| 1777681182 | 28.89° C | 62% | 1007 hPa | 0 mm | - | - | - |
| 1777680581 | 29.44° C | 60% | 1007 hPa | 0 mm | - | - | - |
| 1777679981 | 28.89° C | 64% | 1007 hPa | 0 mm | - | - | - |
| 1777679380 | 28.89° C | 63% | 1007 hPa | 0 mm | - | - | - |
| 1777678780 | 29.44° C | 62% | 1006 hPa | 0 mm | - | - | - |
| 1777678179 | 30° C | 58% | 1006 hPa | 0 mm | - | - | - |
| 1777677579 | 30° C | 53% | 1006 hPa | 0 mm | - | - | - |
| 1777676978 | 30° C | 49% | 1006 hPa | 0 mm | - | - | - |
| 1777676378 | 30.56° C | 49% | 1006 hPa | 0 mm | - | - | - |
| 1777675777 | 30.56° C | 49% | 1006 hPa | 0 mm | - | - | - |
| 1777675176 | 31.11° C | 48% | 1006 hPa | 0 mm | - | - | - |
| 1777674577 | 31.11° C | 47% | 1006 hPa | 0 mm | - | - | - |
| 1777673976 | 31.67° C | 45% | 1006 hPa | 0 mm | - | - | - |
| 1777673375 | 32.22° C | 42% | 1006 hPa | 0 mm | - | - | - |
| 1777672775 | 32.78° C | 42% | 1006 hPa | 0 mm | - | - | - |
| 1777672174 | 32.78° C | 43% | 1006 hPa | 0 mm | - | - | - |
| 1777671573 | 32.78° C | 44% | 1006 hPa | 0 mm | - | - | - |
| 1777670973 | 32.78° C | 45% | 1006 hPa | 0 mm | - | - | - |
| 1777670372 | 32.78° C | 45% | 1006 hPa | 0 mm | - | - | - |
| 1777669772 | 32.78° C | 46% | 1006 hPa | 0 mm | - | - | - |
| 1777669171 | 32.78° C | 46% | 1006 hPa | 0 mm | - | - | - |
| 1777668571 | 32.78° C | 46% | 1006 hPa | 0 mm | - | - | - |
| 1777667970 | 32.78° C | 46% | 1006 hPa | 0 mm | - | - | - |
| 1777667370 | 33.33° C | 46% | 1006 hPa | 0 mm | - | - | - |
| 1777666769 | 33.89° C | 46% | 1006 hPa | 0 mm | - | - | - |
* Rain latest hour (hover to see other rain measurements)
** Current wind speed in m/s (hover to see current wind gust speed)